Location: Brachbach
(49.1847°N, 9.7240°E)
Time: 02:22:01
(UTC+00:00)

NOSS 3-4 (C) - Pass Details

Date: 23 May 2024
Orbit: 814 x 1397 km, 63.4° (Epoch: 04 June)

Event Time Altitude Azimuth Distance (km) Brightness Sun altitude
Rises 00:34:02 0° 315° (NW) 3,793 6.9 -18.1°
Reaches altitude 10° 00:36:39 10° 308° (NW) 2,919 6.2 -18.0°
Maximum altitude 00:43:08 42° 241° (WSW) 1,633 4.3 -17.6°
Enters shadow 00:47:18 24° 187° (S) 2,341 4.9 -17.4°
